1537632000.01,19007,17.06,73846.3,-2.07,-19.37,-19.75,0,*5C
1537632001.28,19008,17.0,73846.3,-2.07,-19.37,-19.65,0,*52
1537632002.51,19009,17.0,73840.0,-2.09,-19.41,-19.71,0,*59
1537632003.75,19010,17.0,73838.5,-2.09,-19.27,-19.71,0,*51
1537632005.02,19011,17.0,73836.5,-2.09,-19.27,-19.57,0,*54
1537632006.23,19012,17.0,73846.3,-2.09,-19.37,-19.71,0,*52
1537632007.5,19013,17.0,73850.5,-2.07,-19.31,-19.75,0,*5F
1537632008.74,19014,17.0,73854.0,-2.07,-19.37,-19.75,0,*5E
1537632009.98,19015,17.0,73856.8,-2.07,-19.37,-19.75,0,*5F
1537632011.22,19016,17.0,73860.0,-2.07,-19.51,-19.95,0,*52
1537632012.46,19017,17.0,73864.3,-2.11,-19.71,-20.05,0,*55
1537632013.69,19018,17.0,73870.5,-2.09,-19.71,-20.19,0,*5E
1537632014.93,19019,17.0,73882.0,-2.11,-19.51,-19.91,0,*5E
1537632016.22,19020,17.0,73872.0,-2.07,-19.23,-19.65,0,*5D
1537632017.45,19021,17.0,73868.3,-2.11,-19.37,-19.71,0,*5B
1537632018.69,19022,17.0,73876.5,-2.09,-19.37,-19.65,0,*54
1537632019.96,19023,17.0,73872.0,-2.09,-19.27,-19.57,0,*55
1537632021.26,19024,17.0,73868.0,-2.11,-19.23,-19.57,0,*5F
1537632022.52,19025,17.0,73860.0,-2.09,-19.23,-19.57,0,*57
1537632023.73,19026,17.0,73862.3,-2.09,-19.37,-19.71,0,*55
1537632024.94,19027,17.0,73868.8,-2.09,-19.37,-19.71,0,*54
1537632026.15,19028,17.0,73866.5,-2.09,-19.37,-19.71,0,*5B
1537632027.41,19029,17.0,73864.3,-2.09,-19.31,-19.65,0,*59
1537632028.68,19030,17.0,73860.3,-2.09,-19.27,-19.65,0,*56
1537632029.95,19031,17.0,73860.0,-2.09,-19.27,-19.57,0,*56
1537632031.24,19032,17.0,73856.8,-2.07,-19.31,-19.61,0,*59
1537632032.48,19033,17.0,73868.8,-2.05,-19.23,-19.51,0,*5A
1537632033.74,19034,17.0,73850.3,-2.07,-19.23,-19.51,0,*5F
1537632035.0,19035,17.0,73846.3,-2.07,-19.23,-19.51,0,*5E
1537632036.29,19036,17.0,73840.5,-2.07,-19.31,-19.61,0,*5D
1537632037.56,19037,17.0,73850.0,-2.07,-19.61,-19.95,0,*52
1537632038.8,19038,17.0,73842.5,-2.09,-19.65,-20.05,0,*54
1537632040.06,19039,17.0,73816.8,-2.07,-19.37,-19.85,0,*5E
1537632041.29,19040,17.0,73822.8,-2.09,-19.41,-19.71,0,*54
1537632042.58,19041,17.0,73820.8,-2.07,-19.31,-19.65,0,*59
1537632043.84,19042,17.0,73820.0,-2.07,-19.23,-19.51,0,*5E
1537632045.11,19043,17.0,73828.3,-2.07,-19.23,-19.51,0,*5F
1537632046.4,19044,17.0,73842.3,-2.07,-19.31,-19.61,0,*58
1537632047.66,19045,17.0,73850.0,-2.07,-19.37,-19.61,0,*5F
1537632048.91,19046,17.0,73850.3,-2.07,-19.37,-19.75,0,*59
1537632050.17,19047,17.0,73820.8,-2.07,-19.23,-19.51,0,*5B
1537632051.43,19048,17.0,73824.0,-2.05,-19.31,-19.61,0,*56
1537632052.7,19049,17.0,73826.8,-2.07,-19.37,-19.61,0,*53
1537632053.96,19050,17.06,73838.5,-2.07,-19.37,-19.85,0,*51
1537632055.2,19051,17.0,73848.8,-2.07,-19.37,-19.75,0,*5F
1537632056.46,19052,17.0,73844.8,-2.07,-19.47,-19.65,0,*5A
1537632057.7,19053,17.0,73848.0,-2.07,-19.37,-19.75,0,*5D
1537632058.94,19054,17.0,73850.8,-2.07,-19.47,-19.75,0,*5D
1537632060.15,19055,17.0,73850.3,-2.05,-19.47,-19.75,0,*5E
1537632061.36,19056,17.0,73852.8,-2.05,-19.47,-19.95,0,*53
1537632062.6,19057,17.0,73858.0,-2.05,-19.47,-19.85,0,*53
1537632063.83,19058,17.0,73858.5,-2.05,-19.51,-19.85,0,*5B
1537632065.09,19059,17.0,73862.5,-2.07,-19.51,-19.85,0,*58
1537632066.33,19060,17.0,73868.5,-2.07,-19.47,-19.95,0,*54
1537632067.59,19061,17.0,73868.5,-2.07,-19.51,-19.85,0,*53
1537632068.83,19062,17.0,73870.0,-2.05,-19.51,-19.85,0,*52
1537632070.09,19063,17.0,73870.0,-2.07,-19.51,-19.85,0,*51
1537632071.36,19064,17.0,73874.3,-2.07,-19.61,-19.95,0,*54
1537632072.63,19065,17.0,73868.3,-2.07,-19.61,-19.95,0,*55
1537632073.9,19066,17.0,73868.0,-2.07,-19.61,-19.95,0,*56
1537632075.17,19067,17.0,73866.5,-2.07,-19.61,-20.09,0,*58
1537632076.38,19068,17.0,73864.3,-2.05,-19.51,-19.95,0,*59
1537632077.65,19069,17.0,73870.8,-2.07,-19.61,-19.95,0,*59
1537632078.91,19070,17.0,73884.5,-2.07,-19.65,-19.99,0,*59
1537632080.15,19071,17.0,73880.5,-2.07,-19.51,-19.99,0,*5F
1537632081.42,19072,17.0,73862.3,-2.09,-19.27,-19.65,0,*50
1537632082.69,19073,17.0,73870.3,-2.09,-19.27,-19.57,0,*50
1537632083.92,19074,17.0,73866.8,-2.09,-19.23,-19.51,0,*55
1537632085.16,19075,17.0,73860.5,-2.09,-19.13,-19.41,0,*56
1537632086.4,19076,17.0,73852.3,-2.09,-19.23,-19.51,0,*57
1537632087.7,19077,17.0,73844.8,-2.11,-19.27,-19.57,0,*5D
1537632088.95,19078,17.0,73846.8,-2.09,-19.41,-19.65,0,*5A
1537632090.16,19079,17.0,73842.0,-2.09,-19.37,-19.71,0,*5F
1537632091.42,19080,17.0,73836.5,-2.11,-19.51,-19.81,0,*5F
1537632092.67,19081,17.0,73828.8,-2.09,-19.41,-19.81,0,*56
1537632093.94,19082,17.0,73820.8,-2.07,-19.37,-19.61,0,*54
1537632095.16,19083,17.0,73832.3,-2.09,-19.41,-19.71,0,*5B
1537632096.42,19084,17.0,73840.0,-2.09,-19.41,-19.81,0,*53
1537632097.65,19085,17.0,73840.0,-2.09,-19.41,-19.71,0,*5D
1537632098.88,19086,17.0,73850.8,-2.07,-19.47,-19.75,0,*52
1537632100.12,19087,17.0,73862.0,-2.07,-19.37,-19.75,0,*54
1537632101.36,19088,17.0,73858.5,-2.09,-19.57,-19.91,0,*59
1537632102.62,19089,17.0,73862.3,-2.07,-19.37,-19.65,0,*5B
1537632103.86,19090,17.0,73872.3,-2.11,-19.51,-19.71,0,*51
1537632105.09,19091,17.0,73874.5,-2.09,-19.51,-19.81,0,*56
1537632106.32,19092,17.0,73882.3,-2.09,-19.41,-19.71,0,*5B
1537632107.55,19093,17.0,73884.5,-2.09,-19.65,-19.99,0,*5A
1537632108.81,19094,17.0,73898.0,-2.11,-19.57,-19.99,0,*55
1537632110.08,19095,17.0,73894.8,-2.07,-19.61,-19.95,0,*5A
1537632111.35,19096,17.0,73894.3,-2.11,-19.81,-20.15,0,*52
1537632112.56,19097,17.0,73896.8,-2.09,-19.71,-20.05,0,*54
1537632113.83,19098,17.0,73896.8,-2.07,-19.61,-19.95,0,*57
1537632115.07,19099,17.0,73888.0,-2.11,-19.51,-19.91,0,*56
1537632116.34,19100,17.0,73876.5,-2.09,-19.27,-19.57,0,*55
1537632117.61,19101,17.0,73876.3,-2.11,-19.37,-19.57,0,*5C
1537632118.84,19102,17.0,73886.0,-2.09,-19.23,-19.51,0,*55
1537632120.13,19103,17.0,73868.8,-2.11,-18.93,-19.27,0,*56
1537632121.41,19104,17.0,73856.5,-2.11,-19.23,-19.65,0,*5D
1537632122.67,19105,17.0,73852.0,-2.11,-19.41,-19.71,0,*5D
1537632123.9,19106,17.0,73852.8,-2.09,-19.37,-19.65,0,*53
1537632125.17,19107,17.0,73854.3,-2.09,-19.41,-19.57,0,*52
1537632126.43,19108,17.0,73852.3,-2.09,-19.27,-19.65,0,*5C
1537632127.68,19109,17.0,73856.5,-2.09,-19.37,-19.57,0,*5D
1537632128.95,19110,17.0,73850.5,-2.09,-19.27,-19.57,0,*54
1537632130.18,19111,17.0,73848.3,-2.09,-19.41,-19.71,0,*51
1537632131.41,19112,17.0,73856.0,-2.09,-19.51,-19.81,0,*5C
1537632132.65,19113,17.0,73850.0,-2.07,-19.51,-19.95,0,*56
1537632133.86,19114,17.0,73848.3,-2.09,-19.71,-20.05,0,*5E
1537632135.07,19115,17.0,73852.3,-2.09,-19.71,-20.05,0,*5F
1537632136.31,19116,17.0,73852.5,-2.11,-19.71,-19.99,0,*5A
1537632137.56,19117,17.0,73854.8,-2.11,-19.71,-20.15,0,*55
1537632138.83,19118,17.0,73858.5,-2.11,-19.81,-20.15,0,*55
1537632140.09,19119,17.0,73852.3,-2.11,-19.71,-20.15,0,*5B
1537632141.35,19120,17.0,73868.5,-2.11,-19.65,-20.05,0,*55
1537632142.61,19121,17.0,73864.5,-2.11,-19.65,-20.05,0,*54
1537632143.87,19122,17.0,73862.0,-2.11,-19.65,-20.05,0,*57
1537632145.12,19123,17.0,73860.8,-2.11,-19.81,-19.99,0,*53
1537632146.37,19124,17.0,73866.3,-2.11,-19.81,-20.05,0,*5B
1537632147.64,19125,17.0,73856.0,-2.11,-19.81,-20.15,0,*5B
1537632148.88,19126,17.0,73856.3,-2.11,-19.81,-20.05,0,*59
1537632150.13,19127,17.0,73864.8,-2.11,-19.81,-20.05,0,*58
1537632151.37,19128,17.0,73860.0,-2.11,-19.71,-20.05,0,*58
1537632152.6,19129,17.0,73864.3,-2.13,-19.75,-20.05,0,*5F
1537632153.85,19130,17.0,73868.3,-2.13,-19.85,-20.09,0,*54
1537632155.08,19131,17.0,73866.3,-2.13,-19.75,-20.05,0,*56
1537632156.32,19132,17.0,73862.0,-2.13,-19.75,-19.95,0,*56
1537632157.55,19133,17.0,73856.3,-2.13,-19.75,-20.05,0,*54
1537632158.78,19134,17.0,73852.8,-2.13,-19.75,-20.05,0,*53
1537632160.03,19135,17.0,73844.0,-2.13,-19.85,-20.05,0,*5D
1537632161.24,19136,17.0,73848.0,-2.15,-19.75,-19.99,0,*58
1537632162.5,19137,17.0,73844.3,-2.11,-19.65,-19.91,0,*54
1537632163.71,19138,17.0,73842.3,-2.15,-19.75,-19.91,0,*5E
1537632164.94,19139,17.0,73846.0,-2.13,-19.71,-19.95,0,*59
1537632166.18,19140,17.0,73842.0,-2.15,-19.75,-19.81,0,*50
1537632167.46,19141,17.0,73844.3,-2.13,-19.61,-19.85,0,*56
1537632168.72,19142,17.0,73844.8,-2.13,-19.57,-19.75,0,*5F
1537632169.95,19143,17.0,73844.5,-2.13,-19.47,-19.71,0,*5B
1537632171.21,19144,17.0,73860.8,-2.13,-19.57,-19.71,0,*5D
1537632172.45,19145,17.0,73856.8,-2.15,-19.61,-19.75,0,*5B
1537632173.69,19146,17.0,73858.5,-2.15,-19.51,-19.65,0,*5A
1537632174.95,19147,17.0,73870.3,-2.13,-19.47,-19.61,0,*5E
1537632176.18,19148,17.0,73870.5,-2.15,-19.47,-19.65,0,*53
1537632177.4,19149,17.0,73872.5,-2.15,-19.51,-19.75,0,*54
1537632178.61,19150,17.0,73878.8,-2.15,-19.51,-19.75,0,*5C
1537632179.82,19151,17.0,73860.3,-2.15,-19.51,-19.75,0,*5D
1537632181.06,19152,17.0,73844.8,-2.15,-19.61,-19.75,0,*5D
1537632182.3,19153,17.0,73864.3,-2.15,-19.47,-19.65,0,*59
1537632183.51,19154,17.0,73860.8,-2.15,-19.51,-19.75,0,*58
1537632184.75,19155,17.0,73842.8,-2.15,-19.47,-19.65,0,*5F
1537632186.04,19156,17.0,73834.5,-2.13,-19.31,-19.57,0,*5A
1537632187.28,19157,17.0,73846.5,-2.15,-19.47,-19.61,0,*59
1537632188.52,19158,17.0,73862.0,-2.15,-19.51,-19.65,0,*55
1537632189.78,19159,17.0,73860.0,-2.15,-19.57,-19.65,0,*52
1537632191.02,19160,17.0,73848.8,-2.15,-19.51,-19.65,0,*5E
1537632192.29,19161,17.0,73846.5,-2.15,-19.61,-19.65,0,*5C
1537632193.53,19162,17.0,73876.5,-2.15,-19.51,-19.65,0,*5C
1537632194.78,19163,17.0,73882.0,-2.13,-19.47,-19.61,0,*58
1537632196.04,19164,17.0,73866.3,-2.13,-19.17,-19.31,0,*5F
1537632197.3,19165,17.0,73874.8,-2.13,-19.17,-19.31,0,*5E
1537632198.52,19166,17.0,73870.0,-2.15,-19.07,-19.17,0,*5E
1537632199.78,19167,17.0,73872.0,-2.13,-19.17,-19.27,0,*5B
1537632201.07,19168,17.0,73874.8,-2.13,-19.27,-19.41,0,*57
1537632202.32,19169,17.0,73872.5,-2.13,-19.41,-19.47,0,*50
1537632203.56,19170,17.0,73868.8,-2.15,-19.37,-19.61,0,*5B
1537632204.86,19171,17.0,73852.5,-2.13,-19.31,-19.57,0,*5F
1537632206.09,19172,17.0,73844.0,-2.11,-19.37,-19.51,0,*5E
1537632207.33,19173,17.0,73844.3,-2.11,-19.37,-19.51,0,*5F
1537632208.59,19174,17.0,73844.5,-2.13,-19.47,-19.57,0,*5B
1537632209.88,19175,17.0,73854.8,-2.13,-19.41,-19.57,0,*5C
1537632211.12,19176,17.0,73854.3,-2.15,-19.51,-19.61,0,*5D
1537632212.4,19177,17.0,73856.3,-2.13,-19.41,-19.57,0,*5E
1537632213.66,19178,17.0,73862.3,-2.13,-19.41,-19.47,0,*50
1537632214.87,19179,17.0,73862.8,-2.15,-19.37,-19.51,0,*51
1537632216.13,19180,17.0,73868.0,-2.13,-19.31,-19.47,0,*50
1537632217.42,19181,17.0,73872.8,-2.13,-19.31,-19.57,0,*50
1537632218.66,19182,17.0,73882.3,-2.15,-19.31,-19.51,0,*53
1537632219.95,19183,17.0,73884.5,-2.13,-19.31,-19.41,0,*55
1537632221.21,19184,17.0,73870.3,-2.13,-19.13,-19.27,0,*52
1537632222.44,19185,17.0,73856.8,-2.13,-18.79,-18.79,0,*54
1537632223.66,19186,17.0,73848.8,-2.13,-18.83,-19.03,0,*5E
1537632224.89,19187,17.0,73842.8,-2.13,-18.99,-19.13,0,*55
1537632226.16,19188,17.0,73862.0,-2.13,-19.13,-19.27,0,*5E
1537632227.45,19189,17.0,73856.0,-2.13,-19.27,-19.31,0,*5F
1537632228.71,19190,17.0,73858.5,-2.09,-19.23,-19.27,0,*5F
1537632229.99,19191,17.0,73848.8,-2.11,-19.23,-19.27,0,*57
1537632231.28,19192,17.0,73846.8,-2.11,-19.23,-19.41,0,*54
1537632232.57,19193,17.0,73852.8,-2.11,-19.23,-19.27,0,*55
1537632233.85,19194,17.0,73862.0,-2.11,-19.23,-19.27,0,*52
1537632235.09,19195,17.0,73858.8,-2.11,-19.13,-19.37,0,*51
1537632236.35,19196,17.0,73854.3,-2.11,-19.23,-19.37,0,*51
1537632237.61,19197,17.0,73840.3,-2.09,-19.23,-19.27,0,*58
1537632238.87,19198,17.0,73846.3,-2.11,-19.23,-19.37,0,*5F
1537632240.16,19199,17.0,73844.8,-2.11,-19.23,-19.27,0,*5F
1537632241.45,19200,17.0,73846.3,-2.11,-19.23,-19.41,0,*5C
1537632242.73,19201,17.0,73858.0,-2.11,-19.23,-19.41,0,*5D
1537632244.0,19202,17.0,73852.5,-2.11,-19.13,-19.27,0,*5D
1537632245.26,19203,17.0,73862.0,-2.11,-19.23,-19.37,0,*5E
1537632246.5,19204,17.0,73866.5,-2.11,-19.13,-19.37,0,*5A
1537632247.74,19205,17.0,73842.8,-2.11,-19.13,-19.37,0,*5B
1537632249.0,19206,17.0,73844.8,-2.11,-19.23,-19.37,0,*5B
1537632250.3,19207,17.0,73846.0,-2.13,-19.27,-19.41,0,*5D
1537632251.59,19208,16.94,73840.8,-2.11,-19.27,-19.41,0,*50
1537632252.86,19209,17.0,73832.5,-2.11,-19.27,-19.51,0,*50
1537632254.12,19210,16.94,73828.0,-2.11,-19.27,-19.51,0,*58
1537632255.39,19211,17.0,73828.5,-2.11,-19.37,-19.57,0,*5E
1537632256.66,19212,17.0,73834.3,-2.11,-19.27,-19.51,0,*5A
1537632257.92,19213,17.0,73832.5,-2.11,-19.27,-19.51,0,*5B
1537632259.19,19214,17.0,73840.3,-2.11,-19.27,-19.51,0,*5C
1537632260.48,19215,17.0,73838.5,-2.13,-19.31,-19.57,0,*5E
1537632261.74,19216,17.0,73838.5,-2.11,-19.23,-19.51,0,*5A
1537632263.01,19217,17.0,73842.8,-2.13,-19.27,-19.47,0,*5A
1537632264.28,19218,17.0,73852.8,-2.13,-19.17,-19.57,0,*57
1537632265.51,19219,17.0,73852.0,-2.13,-19.17,-19.47,0,*57
1537632266.81,19220,17.0,73858.0,-2.13,-19.27,-19.57,0,*5F
1537632268.05,19221,17.0,73856.3,-2.11,-19.13,-19.51,0,*5D
1537632269.32,19222,17.0,73860.8,-2.13,-19.13,-19.57,0,*5A
1537632270.55,19223,17.0,73864.5,-2.13,-19.17,-19.47,0,*5E
1537632271.82,19224,17.0,73856.0,-2.13,-19.17,-19.57,0,*58
1537632273.08,19225,17.0,73858.0,-2.11,-19.23,-19.51,0,*5A
1537632274.32,19226,17.0,73862.3,-2.11,-19.13,-19.51,0,*5A
1537632275.53,19227,17.0,73862.3,-2.15,-19.17,-19.47,0,*5C
1537632276.8,19228,17.0,73866.0,-2.13,-19.13,-19.57,0,*50
1537632278.07,19229,17.0,73868.0,-2.13,-19.13,-19.57,0,*51
1537632279.34,19230,17.0,73870.3,-2.13,-19.13,-19.61,0,*5C
1537632280.6,19231,17.0,73868.3,-2.13,-19.17,-19.61,0,*59
1537632281.86,19232,17.0,73874.0,-2.13,-19.17,-19.61,0,*5A
1537632283.13,19233,17.0,73864.0,-2.13,-19.17,-19.61,0,*5B
1537632284.42,19234,17.0,73864.5,-2.13,-19.27,-19.65,0,*5B
1537632285.71,19235,17.0,73870.5,-2.13,-19.27,-19.61,0,*5E
1537632286.97,19236,16.94,73870.0,-2.15,-19.23,-19.65,0,*5B
1537632288.24,19237,17.0,73862.5,-2.15,-19.31,-19.81,0,*53
1537632289.51,19238,17.0,73856.3,-2.15,-19.27,-19.81,0,*5B
1537632290.77,19239,17.0,73860.8,-2.13,-19.13,-19.61,0,*55
1537632292.03,19240,17.0,73866.5,-2.13,-19.03,-19.61,0,*5A
1537632293.24,19241,17.0,73858.8,-2.15,-19.17,-19.51,0,*5B
1537632294.45,19242,17.0,73860.8,-2.15,-19.07,-19.51,0,*59
1537632295.66,19243,17.0,73858.5,-2.15,-18.99,-19.51,0,*5E
1537632296.89,19244,17.0,73862.3,-2.15,-18.89,-19.37,0,*58
1537632298.15,19245,17.0,73858.8,-2.11,-18.73,-19.27,0,*59
1537632299.38,19246,16.94,73856.5,-2.15,-18.73,-19.31,0,*59
1537632300.64,19247,17.0,73854.5,-2.11,-18.79,-19.27,0,*51
1537632301.9,19248,16.94,73850.3,-2.11,-18.73,-19.27,0,*54
1537632303.16,19249,16.94,73854.0,-2.13,-18.79,-19.41,0,*5D
1537632304.39,19250,17.0,73848.5,-2.13,-18.69,-19.17,0,*57
1537632305.62,19251,17.0,73854.0,-2.13,-18.65,-19.17,0,*5A
1537632306.88,19252,17.0,73854.5,-2.11,-18.73,-19.27,0,*5F
1537632308.11,19253,17.0,73852.8,-2.11,-18.73,-19.37,0,*5F
1537632309.37,19254,17.0,73848.3,-2.11,-18.73,-19.27,0,*59
1537632310.63,19255,17.0,73838.5,-2.11,-18.73,-19.27,0,*58
1537632311.91,19256,17.0,73824.3,-2.11,-18.89,-19.41,0,*5E
1537632313.17,19257,16.94,73810.3,-2.11,-18.93,-19.51,0,*55
1537632314.39,19258,17.0,73814.8,-2.09,-18.89,-19.51,0,*58
1537632315.67,19259,17.0,73826.8,-2.11,-18.89,-19.41,0,*51
1537632316.89,19260,17.0,73826.5,-2.09,-18.89,-19.51,0,*53
1537632318.15,19261,17.0,73828.0,-2.11,-18.93,-19.51,0,*50
1537632319.44,19262,17.0,73822.0,-2.11,-18.93,-19.57,0,*55
1537632320.65,19263,16.94,73826.0,-2.09,-18.99,-19.71,0,*53
1537632321.88,19264,17.0,73830.5,-2.11,-19.07,-19.71,0,*5B
1537632323.11,19265,17.0,73826.3,-2.11,-19.07,-19.71,0,*5A
1537632324.38,19266,17.0,73832.5,-2.11,-19.13,-19.81,0,*53
1537632325.61,19267,17.0,73848.8,-2.11,-19.07,-19.71,0,*58
1537632326.84,19268,16.94,73844.8,-2.11,-18.99,-19.71,0,*51
1537632328.07,19269,17.0,73854.5,-2.09,-19.07,-19.81,0,*50
1537632329.3,19270,17.0,73862.0,-2.11,-19.07,-19.71,0,*5E
1537632330.53,19271,16.94,73858.0,-2.13,-19.03,-19.75,0,*5D
1537632331.77,19272,16.94,73854.3,-2.13,-19.17,-19.75,0,*5B
1537632333.0,19273,17.0,73854.5,-2.11,-19.07,-19.71,0,*5D
1537632334.26,19274,17.0,73854.3,-2.11,-19.07,-19.81,0,*55
1537632335.48,19275,17.0,73858.5,-2.09,-19.07,-19.81,0,*5D
1537632336.75,19276,16.94,73858.0,-2.11,-19.13,-19.81,0,*52
1537632338.01,19277,17.0,73860.5,-2.11,-19.13,-19.81,0,*53
1537632339.27,19278,17.0,73858.8,-2.13,-19.17,-19.85,0,*5E
1537632340.51,19279,17.0,73860.5,-2.13,-19.17,-19.95,0,*5E
1537632341.75,19280,17.0,73858.5,-2.11,-19.13,-19.91,0,*5A
1537632342.99,19281,17.0,73870.5,-2.11,-19.13,-19.99,0,*53
1537632344.23,19282,16.94,73872.3,-2.09,-19.23,-19.91,0,*52
1537632345.49,19283,16.94,73870.8,-2.11,-19.13,-19.81,0,*58
1537632346.75,19284,17.0,73858.5,-2.13,-19.13,-19.85,0,*59
1537632347.98,19285,16.94,73856.0,-2.11,-18.99,-19.71,0,*52
1537632349.22,19286,17.0,73846.3,-2.15,-18.99,-19.61,0,*54
1537632350.48,19287,17.0,73838.8,-2.13,-18.65,-19.41,0,*52
1537632351.71,19288,17.0,73844.3,-2.13,-18.83,-19.47,0,*53
1537632352.97,19289,17.0,73836.0,-2.11,-18.65,-19.27,0,*5E
1537632354.17,19290,17.0,73836.5,-2.09,-18.73,-19.51,0,*59
1537632355.4,19291,16.94,73840.3,-2.11,-18.79,-19.51,0,*5B
1537632356.66,19292,17.0,73832.8,-2.13,-18.79,-19.57,0,*5C
1537632357.92,19293,17.0,73838.5,-2.11,-18.65,-19.41,0,*55
1537632359.15,19294,17.0,73838.0,-2.11,-18.73,-19.51,0,*54
1537632360.39,19295,17.0,73854.5,-2.11,-18.79,-19.51,0,*5F
1537632361.64,19296,17.0,73842.0,-2.11,-18.73,-19.41,0,*57
1537632362.92,19297,16.94,73834.8,-2.11,-18.59,-19.27,0,*5E
1537632364.13,19298,16.94,73828.3,-2.09,-18.65,-19.37,0,*56
1537632365.38,19299,17.0,73824.3,-2.09,-18.59,-19.27,0,*59
1537632366.61,19300,17.0,73832.5,-2.09,-18.59,-19.37,0,*59
1537632367.85,19301,16.94,73840.5,-2.09,-18.65,-19.41,0,*56
1537632369.05,19302,17.0,73852.5,-2.09,-18.73,-19.51,0,*53
1537632370.31,19303,17.0,73866.3,-2.09,-18.93,-19.65,0,*5B
1537632371.57,19304,17.0,73850.0,-2.07,-19.03,-19.61,0,*5E
1537632372.8,19305,16.94,73850.8,-2.07,-19.03,-19.75,0,*5A
1537632374.04,19306,17.0,73856.3,-2.09,-19.23,-19.91,0,*5F
1537632375.3,19307,16.94,73848.5,-2.07,-19.17,-19.85,0,*52
1537632376.54,19308,16.94,73848.8,-2.07,-19.03,-19.75,0,*57
1537632377.82,19309,17.0,73850.5,-2.07,-18.89,-19.65,0,*54
1537632379.08,19310,16.94,73858.0,-2.09,-18.93,-19.65,0,*59
1537632380.31,19311,17.0,73852.8,-2.09,-18.99,-19.65,0,*52
1537632381.57,19312,17.0,73854.3,-2.11,-19.07,-19.81,0,*54
1537632382.8,19313,17.0,73856.5,-2.09,-19.13,-19.81,0,*59
1537632384.04,19314,17.0,73858.8,-2.09,-19.13,-19.81,0,*5E
1537632385.3,19315,16.94,73836.0,-2.07,-18.93,-19.51,0,*55
1537632386.53,19316,16.94,73848.8,-2.09,-18.73,-19.41,0,*57
1537632387.76,19317,16.94,73844.8,-2.09,-18.59,-19.13,0,*59
1537632388.99,19318,17.0,73846.0,-2.07,-18.11,-18.83,0,*5C
1537632390.25,19319,16.94,73836.3,-2.07,-18.01,-18.69,0,*58
1537632391.48,19320,17.0,73842.3,-2.07,-18.17,-18.83,0,*51
1537632392.74,19321,16.94,73846.3,-2.05,-18.31,-18.93,0,*57
1537632393.95,19322,16.94,73842.5,-2.05,-18.45,-19.17,0,*5A
1537632395.2,19323,16.94,73848.5,-2.05,-18.55,-19.23,0,*5D
1537632396.45,19324,16.94,73846.8,-2.05,-18.55,-19.23,0,*5A
1537632397.65,19325,16.94,73852.5,-2.05,-18.41,-19.07,0,*58
1537632398.91,19326,17.0,73862.8,-2.01,-18.55,-19.27,0,*58
1537632400.11,19327,16.94,73856.8,-1.97,-18.73,-19.37,0,*50
1537632401.34,19328,16.94,73834.0,-1.99,-18.83,-19.47,0,*59
1537632402.61,19329,16.94,73836.8,-1.99,-18.99,-19.57,0,*52
1537632403.85,19330,17.0,73840.0,-2.01,-18.99,-19.57,0,*58
1537632405.09,19331,16.94,73834.0,-2.01,-18.99,-19.57,0,*59
1537632406.32,19332,16.94,73832.5,-2.01,-18.99,-19.57,0,*5A
1537632407.53,19333,16.94,73840.3,-2.01,-18.99,-19.71,0,*5F
1537632408.79,19334,16.94,73840.0,-1.99,-19.13,-19.81,0,*56
1537632410.03,19335,16.94,73844.0,-2.01,-19.13,-19.81,0,*55
1537632411.29,19336,16.94,73836.5,-1.99,-19.13,-19.81,0,*54
1537632412.5,19337,16.94,73830.8,-2.01,-19.13,-19.71,0,*58
1537632413.71,19338,16.94,73842.3,-2.01,-19.13,-19.71,0,*57
1537632414.95,19339,16.94,73840.5,-2.01,-18.99,-19.61,0,*54
1537632416.2,19340,16.94,73844.5,-2.01,-18.89,-19.57,0,*5E
1537632417.41,19341,16.94,73848.0,-2.01,-18.79,-19.47,0,*51
1537632418.61,19342,16.94,73840.3,-2.01,-18.79,-19.47,0,*52
1537632419.84,19343,16.94,73848.0,-2.01,-18.79,-19.41,0,*55
1537632421.05,19344,16.94,73850.8,-2.01,-18.83,-19.47,0,*51
1537632422.29,19345,16.94,73844.3,-2.01,-18.99,-19.57,0,*5A
1537632423.55,19346,16.94,73856.0,-1.99,-18.83,-19.57,0,*50
1537632424.78,19347,16.94,73848.3,-1.99,-18.83,-19.47,0,*50
1537632426.04,19348,16.94,73840.5,-2.01,-18.89,-19.61,0,*53
1537632427.27,19349,16.94,73856.3,-1.99,-18.79,-19.47,0,*5B
1537632428.47,19350,16.94,73854.3,-2.01,-18.79,-19.47,0,*51
1537632429.68,19351,16.94,73858.0,-2.01,-18.65,-19.47,0,*5D
1537632430.91,19352,16.94,73874.5,-1.99,-18.83,-19.47,0,*54
1537632432.14,19353,16.94,73856.0,-1.97,-18.83,-19.41,0,*5D
1537632433.41,19354,16.94,73852.0,-1.99,-18.89,-19.81,0,*52
1537632434.65,19355,16.94,73846.5,-1.97,-18.83,-19.57,0,*5C
1537632435.88,19356,16.94,73832.8,-1.97,-18.73,-19.41,0,*57
1537632437.14,19357,16.94,73842.8,-1.99,-18.83,-19.57,0,*50
1537632438.42,19358,16.94,73834.0,-1.99,-18.89,-19.61,0,*50
1537632439.69,19359,16.94,73840.0,-1.99,-18.79,-19.57,0,*5B
1537632440.89,19360,16.94,73844.3,-1.97,-18.79,-19.51,0,*59
1537632442.09,19361,16.94,73840.3,-1.97,-18.79,-19.51,0,*58
1537632443.32,19362,16.94,73844.0,-1.97,-18.93,-19.75,0,*59
1537632444.58,19363,16.94,73844.8,-1.97,-18.93,-19.65,0,*59
1537632445.83,19364,16.94,73856.3,-1.97,-18.93,-19.65,0,*5E
1537632447.09,19365,16.94,73852.8,-1.97,-18.93,-19.65,0,*5F
1537632448.29,19366,16.94,73858.0,-1.97,-18.83,-19.75,0,*5C
1537632449.52,19367,16.94,73856.3,-1.97,-18.99,-19.85,0,*59
1537632450.72,19368,16.94,73856.0,-1.97,-19.07,-19.99,0,*5D
1537632451.94,19369,16.94,73850.0,-1.97,-19.13,-19.99,0,*59
1537632453.15,19370,16.94,73854.0,-1.97,-19.13,-20.05,0,*5E
1537632454.36,19371,16.94,73854.5,-1.97,-19.13,-19.99,0,*50
1537632455.6,19372,16.94,73858.0,-1.99,-19.17,-20.05,0,*56
1537632456.83,19373,16.94,73856.5,-1.97,-19.23,-20.05,0,*5E
1537632458.1,19374,16.94,73866.5,-1.99,-19.27,-20.09,0,*5F
1537632459.36,19375,16.94,73862.8,-1.99,-19.17,-20.19,0,*5C
1537632460.6,19376,16.94,73860.3,-1.99,-19.17,-20.09,0,*5E
1537632461.87,19377,16.94,73864.5,-1.99,-19.27,-20.09,0,*5C
1537632463.1,19378,16.94,73866.8,-1.97,-19.13,-20.15,0,*57
1537632464.4,19379,16.94,73878.5,-1.99,-19.27,-20.19,0,*53
1537632465.61,19380,16.94,73882.5,-2.01,-19.17,-20.25,0,*5B
1537632466.88,19381,16.94,73890.3,-1.99,-19.17,-20.19,0,*57
1537632468.09,19382,16.94,73882.3,-2.01,-19.13,-20.09,0,*53
1537632469.32,19383,16.94,73870.3,-1.99,-19.03,-19.95,0,*5E
1537632470.57,19384,16.94,73862.5,-1.99,-19.13,-20.05,0,*5B
1537632471.8,19385,16.94,73852.3,-1.99,-19.03,-19.95,0,*58
1537632473.03,19386,16.94,73838.0,-1.99,-19.03,-20.05,0,*58
1537632474.27,19387,16.94,73828.8,-2.01,-19.13,-20.19,0,*57
1537632475.52,19388,16.94,73834.3,-2.01,-19.27,-20.25,0,*50
1537632476.73,19389,16.94,73840.0,-2.01,-19.17,-20.09,0,*5C
1537632477.94,19390,16.94,73852.3,-2.01,-19.17,-20.09,0,*54
1537632479.18,19391,16.94,73862.3,-1.99,-19.17,-20.09,0,*57
1537632480.42,19392,16.94,73868.8,-1.99,-19.13,-20.09,0,*50
1537632481.62,19393,16.94,73864.3,-2.01,-19.03,-20.05,0,*5E
1537632482.89,19394,16.94,73864.5,-1.99,-19.17,-20.19,0,*53
1537632484.12,19395,16.94,73874.8,-2.01,-19.17,-20.35,0,*5E
1537632485.37,19396,16.94,73880.5,-2.01,-19.27,-20.25,0,*5F
1537632486.61,19397,16.94,73884.5,-1.99,-19.17,-20.09,0,*51
1537632487.84,19398,16.94,73874.0,-1.99,-18.79,-19.71,0,*52
1537632489.07,19399,16.94,73874.5,-1.99,-18.65,-19.47,0,*5B
1537632490.3,19400,16.94,73866.8,-1.97,-18.65,-19.41,0,*54
1537632491.5,19401,16.94,73848.0,-1.97,-18.65,-19.51,0,*54
1537632492.73,19402,16.94,73850.8,-1.97,-18.83,-19.85,0,*56
1537632493.98,19403,16.94,73836.5,-1.99,-18.83,-19.81,0,*5D
1537632495.22,19404,16.94,73826.3,-1.99,-18.99,-19.95,0,*54
1537632496.45,19405,16.94,73824.3,-1.99,-19.03,-19.95,0,*57
1537632497.66,19406,16.94,73836.0,-1.97,-19.07,-20.05,0,*5D
1537632498.86,19407,16.94,73842.8,-1.97,-19.07,-20.05,0,*5C
1537632500.07,19408,16.94,73844.0,-1.97,-19.07,-20.05,0,*53
1537632501.29,19409,16.94,73836.8,-1.97,-19.07,-20.15,0,*53
1537632502.49,19410,16.94,73838.3,-1.97,-18.99,-19.99,0,*53
1537632503.72,19411,16.94,73830.0,-1.97,-19.07,-20.15,0,*5A